User: anonymous   Login
Location: Eschertshofen
(49.3064°N, 11.5756°E)
Time: 17:29:14
(UTC+00:00)
Language:

Cosmos 2266 Rocket - Orbit

View from above orbital plane
View from above orbital plane
View from above satellite
View from above satellite

Ground track
Ground track

The orbit data is extracted from the following two-line orbital elements,

1 22889U 93070B   20333.43364478 +.00000076 +00000-0 +60766-4 0  9990
2 22889 082.9446 100.1531 0048707 297.7941 061.8284 13.77938876360939
Epoch (UTC): 28 November 2020 10:24:26
Eccentricity: 0.0048707
inclination: 82.9446°
perigee height: 935 km
apogee height: 1007 km
right ascension of ascending node: 100.1531°
argument of perigee: 297.7941°
revolutions per day: 13.77938876
mean anomaly at epoch: 61.8284°
orbit number at epoch: 36093

The dashed part of the orbit path shows where the satellite is in the earth's shadow,  

DLR